Vandalia, OH

11:04 AM EST on February 24, 2017 (GMT -0500)
Cox-Dayton International

Weather History for KDAY - May, 2014

Change the Weather History Date:

Thursday, May 15, 2014

  Actual Average Record
Temperature  
Mean Temperature 53 °F 61 °F  
Max Temperature 65 °F 71 °F 92 °F (1900)
Min Temperature 40 °F 51 °F 32 °F (1910)
Degree Days  
Heating Degree Days 12 6  
Month to date heating degree days 70 106  
Since 1 July heating degree days 5878 5557  
Cooling Degree Days 0 2  
Month to date cooling degree days 49 18  
Year to date cooling degree days 57 28  
Moisture  
Dew Point 50 °F    
Average Humidity 82    
Maximum Humidity 93    
Minimum Humidity 71    
Precipitation  
Precipitation 0.21 in 0.15 in 1.91 in (2007)
Month to date precipitation 2.61 2.25  
Year to date precipitation 16.01 14.63  
Snow  
Snow 0.00 in 0.00 in 0.00 in ()
Month to date snowfall 0.0 0.0  
Since 1 July snowfall 53.6 23.3  
Snow Depth 0.00 in    
Sea Level Pressure  
Sea Level Pressure 29.90 in    
Wind  
Wind Speed 13 mph (WSW)    
Max Wind Speed 24 mph    
Max Gust Speed 29 mph    
Visibility 9 miles    
Events Rain    
T = Trace of Precipitation, MM = Missing Value Source: NWS Daily Summary

Daily Weather History Graph

Daily Weather History Graph

Search for Another Location

Airport or City:

Trip Planner

Search our weather history database for the weather conditions in past years. The results will help you decide how hot, cold, wet, or windy it might be!

Date:

Astronomy

May. 15, 2014 Rise Set
Actual Time 6:21 AM EDT 8:45 PM EDT
Civil Twilight 5:51 AM EDT 9:15 PM EDT
Nautical Twilight 5:13 AM EDT 9:53 PM EDT
Astronomical Twilight 4:31 AM EDT 10:35 PM EDT
Moon 9:52 PM EDT (5/15) 7:07 AM EDT (5/15)
Length of Visible Light 15h 24m
Length of Day
14h 23m
Full, 99% of the Moon is Illuminated
May 15
Full
May 21
Last Quarter
May 28
New
Jun 5
First Quarter
Jun 13
Full

Hourly Weather History & Observations

Time (EDT) Temp. Windchill Dew Point Humidity Pressure Visibility Wind Dir Wind Speed Gust Speed Precip Events Conditions
12:35 AM 64.4 °F - 62.6 °F 94% 29.88 in 2.5 mi SE 10.4 mph - 0.06 in Rain Heavy Rain
12:40 AM 64.4 °F - 62.6 °F 94% 29.88 in 3.0 mi SSE 13.8 mph 17.3 mph 0.08 in Rain Light Rain
12:51 AM 64.4 °F - 62.6 °F 94% 29.87 in 9.0 mi SE 12.7 mph - 0.08 in Rain Light Rain
12:56 AM 64.9 °F - 63.0 °F 93% 29.86 in 9.0 mi SE 12.7 mph - 0.08 in Rain Light Rain
1:56 AM 64.9 °F - 63.0 °F 93% 29.84 in 9.0 mi SSE 13.8 mph - 0.02 in Rain Light Rain
2:21 AM 64.4 °F - 62.6 °F 94% 29.83 in 10.0 mi South 16.1 mph 23.0 mph 0.01 in Rain Light Rain
2:56 AM 64.9 °F - 61.0 °F 87% 29.77 in 10.0 mi South 10.4 mph - 0.01 in   Mostly Cloudy
3:56 AM 64.0 °F - 61.0 °F 90% 29.75 in 10.0 mi South 12.7 mph - N/A   Overcast
4:56 AM 64.0 °F - 61.0 °F 90% 29.74 in 10.0 mi South 12.7 mph - N/A   Overcast
5:56 AM 64.0 °F - 61.0 °F 90% 29.73 in 3.0 mi South 11.5 mph - 0.02 in Rain Rain
6:17 AM 64.4 °F - 62.6 °F 94% 29.74 in 6.0 mi South 11.5 mph - 0.02 in Rain Light Rain
6:35 AM 62.6 °F - 60.8 °F 94% 29.76 in 1.8 mi WSW 19.6 mph 26.5 mph 0.06 in Rain Rain
6:42 AM 60.8 °F - 57.2 °F 88% 29.76 in 1.8 mi WSW 18.4 mph 26.5 mph 0.10 in Rain Rain
6:54 AM 57.2 °F - 55.4 °F 94% 29.77 in 2.0 mi West 21.9 mph 29.9 mph 0.12 in Rain Light Rain
6:56 AM 57.9 °F - 55.0 °F 90% 29.76 in 2.5 mi West 23.0 mph 29.9 mph 0.13 in Rain Light Rain
6:59 AM 57.2 °F - 55.4 °F 94% 29.77 in 3.0 mi West 19.6 mph 29.9 mph 0.00 in Rain Light Rain
7:26 AM 57.2 °F - 53.6 °F 88% 29.79 in 4.0 mi WSW 16.1 mph 24.2 mph 0.00 in Rain Light Rain
7:56 AM 55.9 °F - 53.1 °F 90% 29.81 in 10.0 mi WSW 15.0 mph 24.2 mph 0.02 in Rain Light Rain
8:22 AM 53.6 °F - 51.8 °F 94% 29.82 in 10.0 mi WSW 18.4 mph 24.2 mph 0.01 in   Overcast
8:56 AM 53.1 °F - 50.0 °F 89% 29.83 in 10.0 mi WSW 12.7 mph - 0.01 in   Overcast
9:56 AM 52.0 °F - 46.9 °F 83% 29.85 in 10.0 mi WSW 17.3 mph - 0.00 in   Overcast
10:51 AM 51.8 °F - 46.4 °F 82% 29.87 in 10.0 mi WSW 18.4 mph 24.2 mph N/A   Overcast
10:56 AM 52.0 °F - 46.0 °F 80% 29.87 in 10.0 mi WSW 19.6 mph 24.2 mph N/A   Overcast
11:56 AM 53.1 °F - 46.0 °F 77% 29.90 in 10.0 mi WSW 17.3 mph 21.9 mph N/A   Overcast
12:39 PM 51.8 °F - 46.4 °F 82% 29.92 in 10.0 mi WSW 18.4 mph 25.3 mph N/A   Overcast
12:56 PM 51.1 °F - 45.0 °F 80% 29.93 in 10.0 mi SW 19.6 mph - N/A   Overcast
1:53 PM 51.8 °F - 46.4 °F 82% 29.93 in 10.0 mi WSW 16.1 mph - 0.00 in   Overcast
1:56 PM 52.0 °F - 46.0 °F 80% 29.93 in 10.0 mi SW 16.1 mph - 0.00 in   Overcast
2:56 PM 53.1 °F - 46.0 °F 77% 29.94 in 10.0 mi WSW 13.8 mph - N/A   Overcast
3:56 PM 53.1 °F - 46.0 °F 77% 29.94 in 10.0 mi WSW 17.3 mph - N/A   Overcast
4:03 PM 51.8 °F - 44.6 °F 76% 29.95 in 10.0 mi WSW 17.3 mph 27.6 mph N/A   Overcast
4:54 PM 53.6 °F - 44.6 °F 72% 29.97 in 10.0 mi WSW 16.1 mph - 0.00 in   Mostly Cloudy
4:56 PM 53.1 °F - 44.1 °F 71% 29.96 in 10.0 mi WSW 17.3 mph 25.3 mph 0.00 in   Mostly Cloudy
5:20 PM 51.8 °F - 42.8 °F 71% 29.98 in 10.0 mi West 13.8 mph - N/A   Overcast
5:47 PM 51.8 °F - 42.8 °F 71% 29.99 in 10.0 mi West 15.0 mph - N/A   Overcast
5:56 PM 51.1 °F - 43.0 °F 74% 29.99 in 10.0 mi West 18.4 mph 27.6 mph N/A   Overcast
6:56 PM 50.0 °F - 41.0 °F 71% 30.02 in 10.0 mi West 13.8 mph - N/A   Overcast
7:48 PM 48.2 °F - 39.2 °F 71% 30.04 in 10.0 mi WNW 12.7 mph - N/A   Overcast
7:56 PM 48.9 °F - 39.0 °F 69% 30.04 in 10.0 mi WNW 15.0 mph - N/A   Overcast
8:38 PM 48.2 °F - 39.2 °F 71% 30.05 in 10.0 mi WNW 10.4 mph - N/A   Overcast
8:56 PM 46.9 °F - 39.0 °F 74% 30.06 in 10.0 mi WNW 10.4 mph - N/A   Mostly Cloudy
9:56 PM 45.0 °F 41.8 °F 39.0 °F 80% 30.08 in 10.0 mi NNW 5.8 mph - N/A   Scattered Clouds
10:56 PM 44.1 °F - 37.9 °F 79% 30.09 in 10.0 mi Calm Calm - N/A   Clear
11:56 PM 41.0 °F 38.0 °F 37.0 °F 86% 30.08 in 10.0 mi WSW 4.6 mph - N/A   Clear